CST,Max TemperatureF,Mean TemperatureF,Min TemperatureF,Max Dew PointF,MeanDew PointF,Min DewpointF,Max Humidity, Mean Humidity, Min Humidity, Max Sea Level PressureIn, Mean Sea Level PressureIn, Min Sea Level PressureIn, Max VisibilityMiles, Mean VisibilityMiles, Min VisibilityMiles, Max Wind SpeedMPH, Mean Wind SpeedMPH, Max Gust SpeedMPH,PrecipitationIn, CloudCover, Events, WindDirDegrees
2012-12-1,69,56,42,50,46,39,93,69,43,30.28,30.22,30.17,10,9,5,12,2,20,0.00,1,,176
2012-12-2,73,64,55,59,55,50,100,81,57,30.27,30.21,30.17,10,8,4,13,4,20,0.00,5,,197
2012-12-3,73,64,55,55,54,50,100,73,44,30.23,30.17,30.12,10,9,5,13,4,21,0.00,1,,179
2012-12-4,71,62,53,63,57,54,100,89,64,30.23,30.17,30.13,10,7,2,18,5,32,0.34,5,Rain-Thunderstorm,201
2012-12-5,59,52,44,55,50,39,100,86,54,30.28,30.19,30.10,10,6,1,9,4,,0.00,7,Rain,46
2012-12-6,62,55,48,57,53,41,100,90,71,30.10,30.03,29.96,10,6,0,5,1,,0.01,7,Fog-Rain,132
2012-12-7,66,60,55,57,55,52,100,89,68,29.99,29.94,29.88,10,7,2,6,2,,0.00,5,Rain,184
2012-12-8,66,62,57,59,57,55,100,90,73,29.99,29.94,29.91,10,6,2,9,3,16,0.01,6,Rain-Thunderstorm,199
2012-12-9,71,65,59,63,59,55,100,81,57,29.96,29.89,29.77,10,9,3,13,5,25,0.04,3,Rain-Thunderstorm,192
2012-12-10,62,47,32,61,37,23,100,83,57,30.08,29.92,29.77,10,7,0,17,8,46,0.98,7,Rain-Thunderstorm,340
2012-12-11,46,36,26,27,23,16,93,68,29,30.27,30.18,30.09,10,9,7,9,4,,0.00,2,,29
2012-12-12,50,37,24,27,23,16,93,68,26,30.37,30.31,30.26,10,9,8,10,2,,0.00,0,,37
2012-12-13,57,40,23,28,24,16,100,66,20,30.42,30.34,30.28,10,8,5,5,0,,0.00,0,,65
2012-12-14,59,42,26,46,33,25,93,67,42,30.33,30.24,30.11,10,8,1,8,1,,0.17,1,Rain-Thunderstorm,160
2012-12-15,62,54,46,59,51,45,100,87,77,30.10,29.97,29.87,10,8,2,8,4,18,0.11,7,Rain-Thunderstorm,171
2012-12-16,60,56,53,59,57,52,100,96,94,29.88,29.82,29.75,10,7,1,9,5,,1.03,7,Rain-Thunderstorm,195
2012-12-17,64,50,35,55,49,34,100,86,56,29.89,29.77,29.69,10,7,1,14,6,21,0.01,4,Rain,237
2012-12-18,60,46,32,41,37,32,100,75,42,29.99,29.93,29.88,10,7,0,12,2,20,0.00,0,Fog,189
2012-12-19,68,56,44,50,42,39,87,61,35,30.01,29.92,29.77,10,10,8,12,3,17,0.00,1,,175
2012-12-20,62,50,37,61,35,16,100,63,41,30.18,29.89,29.60,10,8,1,24,11,46,0.37,4,Rain,274
2012-12-21,46,35,24,23,15,7,86,49,20,30.35,30.30,30.19,10,10,8,16,8,24,0.00,0,,309
2012-12-22,59,41,23,28,23,19,93,59,22,30.37,30.28,30.16,10,10,8,12,2,,0.00,0,,206
2012-12-23,55,50,44,54,41,25,100,75,43,30.15,30.03,29.84,10,8,2,9,5,21,0.07,6,Rain,193
2012-12-24,59,52,44,55,50,43,100,89,72,29.99,29.89,29.79,10,7,3,12,6,20,0.00,6,Rain,297
2012-12-25,44,42,39,43,39,37,100,93,87,29.98,29.78,29.45,10,4,0,20,8,31,1.26,6,Fog-Rain,60
2012-12-26,37,34,30,37,27,23,100,83,75,30.22,29.95,29.49,10,7,1,17,11,25,0.05,8,Rain-Snow,321
2012-12-27,39,32,26,28,26,25,93,78,61,30.22,30.14,30.05,10,9,7,7,2,,0.00,2,,94
2012-12-28,37,34,32,37,34,28,100,95,81,30.08,29.94,29.77,10,4,1,13,4,17,1.24,8,Rain,78
2012-12-29,35,29,23,32,25,19,100,80,60,30.45,30.22,29.96,10,6,3,15,8,21,0.00,6,,320
2012-12-30,44,30,17,27,22,16,100,75,42,30.55,30.46,30.36,10,7,3,5,0,,0.00,0,,76
2012-12-31,46,39,32,45,32,25,100,71,53,30.35,30.21,30.03,10,8,1,8,2,,0.22,4,Rain,170